Location: Unspecified
(0.0000°N, 0.0000°E)
Time: 06:36:02
(UTC+00:00)

Transit 2A Rocket - Pass Details

Date: 29 November 2019
Orbit: 594 x 909 km, 66.7° (Epoch: 11 December)

Event Time Altitude Azimuth Distance (km) Brightness Sun altitude
Rises 18:41:52 0° 238° (WSW) 3,278 10.2 -12.4°
Reaches altitude 10° 18:46:21 10° 272° (W) 2,254 8.5 -13.5°
Maximum altitude 18:47:44 11° 288° (WNW) 2,152 8.1 -13.8°
Drops below altitude 10° 18:49:06 10° 304° (NW) 2,193 7.8 -14.1°
Sets 18:53:16 0° 340° (NNW) 3,018 8.1 -15.1°
